McCall, ID

1:54 PM MDT on June 26, 2017 (GMT -0600)
McCall

Weather History for KMYL - November, 2011

Change the Weather History Date:

Thursday, November 10, 2011

  Actual Average Record
Temperature  
Mean Temperature 32 °F 31 °F  
Max Temperature 46 °F 41 °F 63 °F (2016)
Min Temperature 17 °F 22 °F -4 °F (1986)
Degree Days  
Heating Degree Days 33 34  
Month to date heating degree days 378 320  
Since 1 July heating degree days 1407 1863  
Cooling Degree Days 0 0  
Month to date cooling degree days 0 0  
Year to date cooling degree days 56 25  
Moisture  
Dew Point 18 °F    
Average Humidity 63    
Maximum Humidity 92    
Minimum Humidity 33    
Precipitation  
Precipitation 0.00 in 0.11 in 0.72 in (1994)
Month to date precipitation 0.13 1.03  
Year to date precipitation 21.40 16.35  
Sea Level Pressure  
Sea Level Pressure 30.32 in    
Wind  
Wind Speed 1 mph (South)    
Max Wind Speed 6 mph    
Max Gust Speed 7 mph    
Visibility 10 miles    
Events      
T = Trace of Precipitation, MM = Missing Value Source: NWS Daily Summary

Daily Weather History Graph

Daily Weather History Graph

Search for Another Location

Airport or City:

Trip Planner

Search our weather history database for the weather conditions in past years. The results will help you decide how hot, cold, wet, or windy it might be!

Date:

Astronomy

Nov. 10, 2011 Rise Set
Actual Time 7:34 AM MST 5:21 PM MST
Civil Twilight 7:03 AM MST 5:52 PM MST
Nautical Twilight 6:28 AM MST 6:27 PM MST
Astronomical Twilight 5:53 AM MST 7:02 PM MST
Moon 5:09 PM MST (11/10) 7:33 AM MST (11/10)
Length of Visible Light 10h 49m
Length of Day
9h 46m
Full, 100% of the Moon is Illuminated
Nov 10
Full
Nov 10
Full
Nov 18
Last Quarter
Nov 24
New
Dec 2
First Quarter

Hourly Weather History & Observations

Time (MST) Temp. Windchill Dew Point Humidity Pressure Visibility Wind Dir Wind Speed Gust Speed Precip Events Conditions
12:51 AM 21.9 °F - 17.1 °F 82% 30.44 in 10.0 mi Calm Calm - N/A   Clear
1:51 AM 21.0 °F 16.2 °F 17.1 °F 85% 30.43 in 10.0 mi ENE 3.5 mph - N/A   Clear
2:51 AM 19.0 °F - 15.1 °F 85% 30.42 in 10.0 mi Calm Calm - N/A   Clear
4:51 AM 19.0 °F - 16.0 °F 88% 30.40 in 10.0 mi Calm Calm - N/A   Clear
5:51 AM 17.1 °F - 15.1 °F 92% 30.42 in 10.0 mi Calm Calm - N/A   Clear
6:51 AM 19.9 °F - 16.0 °F 85% 30.42 in 10.0 mi Calm Calm - N/A   Clear
7:51 AM 19.0 °F - 16.0 °F 88% 30.43 in 10.0 mi Calm Calm - N/A   Clear
8:51 AM 21.0 °F - 18.0 °F 88% 30.43 in 10.0 mi Calm Calm - N/A   Clear
9:51 AM 26.1 °F - 21.0 °F 81% 30.40 in 10.0 mi Calm Calm - N/A   Clear
10:51 AM 32.0 °F - 21.9 °F 66% 30.37 in 10.0 mi Calm Calm - N/A   Clear
11:51 AM 39.0 °F 35.7 °F 21.9 °F 50% 30.33 in 10.0 mi SW 4.6 mph - N/A   Clear
12:51 PM 42.1 °F 39.2 °F 19.9 °F 41% 30.30 in 10.0 mi South 4.6 mph - N/A   Clear
1:51 PM 45.0 °F 41.2 °F 19.9 °F 37% 30.27 in 10.0 mi Variable 6.9 mph - N/A   Clear
2:51 PM 45.0 °F - 18.0 °F 34% 30.25 in 10.0 mi Calm Calm - N/A   Clear
3:51 PM 44.1 °F 40.8 °F 17.1 °F 34% 30.22 in 10.0 mi South 5.8 mph - N/A   Clear
4:51 PM 41.0 °F 39.0 °F 18.0 °F 40% 30.22 in 10.0 mi South 3.5 mph - N/A   Clear
5:51 PM 33.1 °F - 19.9 °F 59% 30.25 in 10.0 mi Calm Calm - N/A   Clear
6:51 PM 30.0 °F - 19.0 °F 64% 30.25 in 10.0 mi Calm Calm - N/A   Clear
7:51 PM 28.0 °F - 19.9 °F 72% 30.25 in 10.0 mi Calm Calm - N/A   Clear
8:51 PM 27.0 °F - 19.0 °F 72% 30.24 in 10.0 mi Calm Calm - N/A   Clear
9:51 PM 26.1 °F - 19.0 °F 75% 30.22 in 10.0 mi Calm Calm - N/A   Clear
10:51 PM 25.0 °F - 19.0 °F 78% 30.19 in 10.0 mi Calm Calm - N/A   Clear
11:51 PM 23.0 °F - 18.0 °F 81% 30.15 in 10.0 mi Calm Calm - N/A   Clear